Location: *
(38.6492°S, 57.4392°E)
Time: 10:58:59
(UTC+00:00)

Daily predictions for brighter satellites

Satellite Brightness Start Highest point End
(mag) Time Altitude Azimuth Time Altitude Azimuth Time Altitude Azimuth
Cosmos 1486 Rocket 4.5 15:19:29 10° NNW 15:24:48 72° WSW 15:30:12 10° SSE
STARLINK-1141 3.9 15:21:53 10° WSW 15:25:19 51° NW 15:28:41 10° NNE
STARLINK-1224 4.4 15:24:23 10° N 15:26:41 19° NE 15:29:03 10° E
STARLINK-1225 4.4 15:24:52 10° N 15:27:11 19° NE 15:29:34 10° E
STARLINK-1230 4.4 15:25:26 10° N 15:27:46 19° NE 15:30:09 10° E
STARLINK-1140 4.0 15:24:39 10° WSW 15:28:03 47° NW 15:31:24 10° NNE
STARLINK-1243 4.4 15:25:54 10° N 15:28:16 20° NE 15:30:40 10° E
Cosmos 807 4.2 15:25:28 10° S 15:28:31 86° E 15:31:54 10° N
STARLINK-1236 4.3 15:26:30 10° N 15:28:52 20° NE 15:31:19 10° E
Cosmos 2082 Rocket 2.2 15:23:20 10° NNW 15:29:03 76° ENE 15:34:50 10° SSE
Cosmos 1812 2.7 15:25:32 10° N 15:29:24 72° E 15:33:20 10° SSE
STARLINK-1269 4.3 15:27:35 10° N 15:30:01 20° NE 15:32:28 10° E
STARLINK-67 3.6 15:27:56 10° N 15:30:05 23° NE 15:32:16 10° ESE
STARLINK-1200 4.3 15:28:08 10° N 15:30:34 21° NE 15:33:03 10° ESE
STARLINK-1156 4.1 15:27:25 10° WSW 15:30:46 44° NW 15:34:05 10° NNE
STARLINK-1192 4.3 15:28:44 10° N 15:31:11 21° NE 15:33:42 10° ESE
Cosmos 2084 Rocket 3.4 15:26:58 10° SSW 15:31:17 84° ESE 15:35:33 10° NE
STARLINK-1244 4.2 15:29:14 10° N 15:31:43 21° NE 15:34:15 10° ESE
STARLINK-1138 4.2 15:29:50 10° N 15:32:19 22° NE 15:34:52 10° ESE
STARLINK-1143 4.2 15:30:23 10° N 15:32:53 22° NE 15:35:27 10° ESE
Okean-O 3.8 15:28:49 10° S 15:33:11 51° WSW 15:37:30 10° NNW
STARLINK-1148 4.3 15:30:10 10° WSW 15:33:31 41° NW 15:36:49 10° NNE
Cosmos 1833 Rocket 3.3 15:28:21 10° NNW 15:33:54 63° WSW 15:39:32 10° SSE
STARLINK-1158 4.3 15:32:18 10° WSW 15:35:35 39° NW 15:38:48 10° NNE
CZ-2C R/B 2.6 15:30:42 10° NNE 15:35:52 64° ESE 15:41:04 10° S
DELTA 2 R/B (1) 3.7 15:32:32 10° W 15:38:11 80° NNW 15:43:36 11° ENE
SL-27 R/B 4.0 15:36:07 10° NE 15:38:21 17° E 15:40:38 10° ESE
Cosmos 968 Rocket 3.8 15:34:40 10° NNW 15:39:57 78° WSW 15:45:18 10° SSE
Cosmos 1354 Rocket 4.0 15:34:59 10° NNW 15:40:13 77° ENE 15:45:31 10° SSE
Cosmos 1939 Rocket 2.8 15:38:23 10° SSE 15:42:26 84° E 15:46:30 10° N
Cosmos 1441 Rocket 3.2 15:41:01 10° S 15:44:50 85° W 15:48:36 10° N
BREEZE-M DEB (TANK) 3.4 15:41:10 10° W 15:44:57 32° SSW 15:47:02 10° SE
Cosmos 1666 3.5 15:41:30 10° SSE 15:45:00 32° ESE 15:48:27 10° NE
CZ-4 R/B 2.2 15:41:02 10° S 15:45:09 60° WSW 15:49:18 10° NNW
Meteor 1-11 Rocket 3.8 15:40:24 10° S 15:46:26 76° E 15:52:17 10° NNE
GPS 2-05 Rocket1 3.5 15:45:15 10° WNW 15:47:13 23° NNW 15:48:38 14° NE
Atlas Centaur 2 2.8 15:45:04 10° WNW 15:47:48 20° N 15:50:22 11° NE
Cosmos 1697 Rocket 2.8 15:43:49 10° SSW 15:49:32 86° WNW 15:55:10 10° NNE
Cosmos 1461 4.4 15:46:55 10° S 15:50:12 22° SE 15:52:38 13° E
Cosmos 1980 Rocket 2.3 15:51:52 10° SSW 15:57:35 60° ESE 16:02:47 12° NE
OAO 3 Rocket 3.4 15:57:55 10° WNW 16:02:32 54° N 16:05:40 19° ENE
FREGAT/IRIS 3.1 16:04:36 10° SSE 16:07:10 32° E 16:07:48 28° NE
Meteor 1-27 Rocket 4.3 16:03:25 10° NNW 16:09:13 65° W 16:15:11 10° S
STARLINK-1234 2.5 16:07:01 10° NW 16:09:40 57° NE 16:11:14 22° ESE
HJ-1C 3.7 16:12:27 10° S 16:15:52 70° WSW 16:19:13 10° NNW
Cosmos 1733 Rocket 3.9 16:12:11 10° SSW 16:16:35 52° W 16:20:57 10° N
YAOGAN 1 4.3 16:13:10 10° S 16:17:12 36° WSW 16:21:12 10° NW
SJ-6B 3.5 16:14:54 10° SSE 16:18:28 32° E 16:19:19 29° ENE
Okean 1 3.8 16:17:09 23° NE 16:19:03 38° E 16:22:49 10° SSE
USA 186 2.9 16:17:18 10° SSE 16:18:22 20° SE 16:18:22 20° SE
Cosmos 2242 Rocket 3.7 16:15:33 10° N 16:20:10 83° W 16:24:49 10° S
SL-16 R/B 3.1 16:22:54 10° S 16:28:01 32° ESE 16:30:01 26° E
STARLINK-1209 2.9 16:26:24 10° NW 16:29:26 77° SW 16:31:10 24° SE
STARLINK-1205 2.9 16:26:24 10° NW 16:29:26 77° SW 16:31:09 24° SE
Shenzhou-11 Module 3.9 16:29:27 10° WNW 16:31:16 17° NW 16:31:29 16° NNW
MOS 1 Rocket 4.4 16:26:33 10° N 16:31:21 48° W 16:36:30 10° SSW
STARLINK-1220 3.0 16:29:09 10° NW 16:32:12 72° SW 16:33:55 24° SE
STARLINK-1105 3.0 16:29:32 10° NW 16:32:35 71° SW 16:34:15 25° SE
STARLINK-1235 3.0 16:29:38 10° NW 16:32:41 71° SW 16:34:22 24° SE
STARLINK-1208 3.0 16:29:39 10° NW 16:32:43 71° SW 16:34:22 25° SE
STARLINK-1199 3.0 16:29:41 10° NW 16:32:44 71° SW 16:34:24 25° SE
STARLINK-1212 3.0 16:29:50 10° NW 16:32:53 71° SW 16:34:33 25° SE
STARLINK-1206 3.0 16:29:52 10° NW 16:32:55 71° SW 16:34:34 25° SE
STARLINK-1210 3.0 16:29:54 10° NW 16:32:56 71° SW 16:34:37 25° SE
STARLINK-1217 3.0 16:29:57 10° NW 16:33:00 70° SW 16:34:39 25° SE
STARLINK-1254 3.0 16:29:58 10° NW 16:33:01 70° SW 16:34:40 25° SE
STARLINK-1226 3.0 16:29:58 10° NW 16:33:02 70° SW 16:34:41 25° SE
STARLINK-1227 3.0 16:30:01 10° NW 16:33:04 70° SW 16:34:44 25° SE
STARLINK-1238 3.0 16:30:05 10° NW 16:33:07 70° SW 16:34:46 25° SE
STARLINK-1218 3.0 16:30:06 10° NW 16:33:08 70° SW 16:34:48 25° SE
STARLINK-1229 3.0 16:30:08 10° NW 16:33:11 70° SW 16:34:50 25° SE
STARLINK-1270 3.0 16:30:09 10° NW 16:33:12 70° SW 16:34:51 25° SE
STARLINK-1231 3.0 16:30:09 10° NW 16:33:12 70° SW 16:34:51 25° SE
STARLINK-1271 3.0 16:30:09 10° NW 16:33:13 70° SW 16:34:52 25° SE
STARLINK-1187 3.0 16:30:11 10° NW 16:33:15 70° SW 16:34:54 25° SE
STARLINK-1191 3.0 16:30:14 10° NW 16:33:17 70° SW 16:34:56 25° SE
STARLINK-1154 3.0 16:30:14 10° NW 16:33:17 70° SW 16:34:56 25° SE
STARLINK-1232 3.0 16:30:14 10° NW 16:33:17 70° SW 16:34:57 25° SE
STARLINK-1197 3.0 16:30:18 10° NW 16:33:21 70° SW 16:35:00 25° SE
STARLINK-1247 3.0 16:30:21 10° NW 16:33:24 70° SW 16:35:03 25° SE
STARLINK-1189 3.0 16:30:22 10° NW 16:33:25 70° SW 16:35:04 25° SE
STARLINK-1219 3.0 16:30:22 10° NW 16:33:25 70° SW 16:35:05 25° SE
STARLINK-1215 3.1 16:30:22 10° NW 16:33:25 70° SW 16:35:06 25° SE
STARLINK-1211 3.0 16:30:23 10° NW 16:33:27 70° SW 16:35:05 25° SE
STARLINK-1198 3.0 16:30:24 10° NW 16:33:27 70° SW 16:35:05 25° SE
STARLINK-1188 3.0 16:30:24 10° NW 16:33:28 70° SW 16:35:07 25° SE
STARLINK-1222 3.0 16:30:25 10° NW 16:33:28 70° SW 16:35:07 25° SE
STARLINK-1214 3.1 16:30:29 10° NW 16:33:31 70° SW 16:35:11 25° SE
STARLINK-1245 3.1 16:30:38 10° NW 16:33:41 69° SW 16:35:20 25° SE
STARLINK-1221 3.1 16:30:38 10° NW 16:33:41 69° SW 16:35:20 25° SE
STARLINK-1201 3.1 16:30:38 10° NW 16:33:41 69° SW 16:35:19 25° SE
STARLINK-1204 3.1 16:30:40 10° NW 16:33:44 69° SW 16:35:22 25° SE
STARLINK-1228 3.1 16:30:47 10° NW 16:33:50 69° SW 16:35:28 25° SE
STARLINK-1233 3.1 16:31:02 10° NW 16:34:05 69° SW 16:35:44 25° SE
MONITOR-E 4.0 16:33:29 10° S 16:36:15 72° WSW 16:36:52 48° NW
SL-24 R/B 4.3 16:31:48 10° SSE 16:36:30 84° ENE 16:41:39 10° NNW
Cosmos 1782 Rocket 3.8 16:32:27 10° S 16:36:46 50° E 16:37:47 41° ENE
Meteor 1-19 Rocket 4.4 16:34:10 26° NNE 16:36:50 45° E 16:42:03 10° SSE
Ariane Rocket 3.0 16:31:52 10° SSE 16:37:02 85° WSW 16:42:09 10° NNW
SJ-11-01 4.5 16:32:49 10° S 16:37:39 76° WSW 16:42:23 10° NNW
ARGOS 3.2 16:32:27 10° SSE 16:37:49 58° E 16:42:16 15° N
CZ-4C R/B 3.8 16:35:52 10° S 16:39:39 18° SE 16:41:33 15° ESE
Cosmos 1703 Rocket 3.7 16:37:28 10° N 16:41:58 78° W 16:46:31 10° S
Meteor 2-4 Rocket 4.4 16:41:35 32° E 16:42:03 32° E 16:47:05 10° SSE
STARLINK-1203 3.6 16:39:53 10° WNW 16:42:59 55° SW 16:44:26 27° SSE
Okean 1-7 3.0 16:38:53 11° N 16:43:12 88° W 16:47:42 10° S
Cosmos 405 2.8 16:43:34 61° NNE 16:44:04 75° E 16:47:41 10° SSE
OAO 2 Rocket 3.4 16:39:17 10° WNW 16:44:09 57° N 16:45:21 44° NE
Cosmos 1743 2.6 16:42:18 10° S 16:46:18 71° E 16:46:50 60° NE
Cosmos 1777 Rocket 4.1 16:43:59 10° NNW 16:49:13 77° WSW 16:54:30 10° SSE
Cosmos 1538 Rocket 4.1 16:44:25 10° S 16:49:49 59° ESE 16:51:16 44° ENE
H-2A R/B 1.9 16:44:44 10° SSE 16:49:49 90° WSW 16:54:58 10° NNW
RESURS DK-1 2.2 16:45:54 10° SSW 16:50:05 88° ESE 16:50:50 59° NNE
Cosmos 2279 Rocket 4.4 16:46:04 10° SSW 16:52:20 64° W 16:58:29 10° N
STARLINK-1246 4.0 16:49:36 10° WNW 16:52:39 44° SW 16:53:46 30° SSE
MOS 1 4.2 16:47:12 10° SSE 16:53:01 88° E 16:58:45 10° NNW
ARGOS Delta rocket 3.8 16:49:40 10° S 16:54:44 89° WSW 16:57:46 23° NNW
Nadezhda 4 Rocket 3.9 16:49:48 13° N 16:55:34 79° E 17:01:56 10° S
Cosmos 405 Rocket 3.2 16:52:03 10° SSW 16:55:55 59° W 16:57:08 39° NNW
Resurs 1-3 4.3 16:52:26 10° SSE 16:55:42 37° ESE 16:55:42 37° ESE
STARLINK-1241 4.2 16:53:51 10° WNW 16:56:53 40° SW 16:57:50 31° S
STARLINK-1239 4.3 16:54:22 10° WNW 16:57:23 40° SW 16:58:18 31° S
STARLINK-1240 4.3 16:54:55 10° WNW 16:57:56 39° SW 16:58:50 31° S
STARLINK-1216 4.3 16:55:26 10° WNW 16:58:26 39° SW 16:59:19 31° S
STARLINK-1237 4.3 16:56:03 10° WNW 16:59:04 38° SW 16:59:55 31° S
STARLINK-1202 4.3 16:56:30 10° WNW 16:59:30 38° SW 17:00:20 31° S
STARLINK-1224 4.4 16:58:09 10° WNW 17:01:09 37° SW 17:01:56 31° S
Cosmos 2333 Rocket 4.4 16:59:50 10° SSE 17:01:20 11° SE 17:02:17 11° SE
STARLINK-1225 4.4 16:58:40 10° WNW 17:01:40 36° SW 17:02:26 31° S
STARLINK-1230 4.5 16:59:16 10° WNW 17:02:15 36° SW 17:02:59 31° S
Cosmos 2026 Rocket 4.5 17:02:27 38° E 17:02:27 38° E 17:07:57 10° SSE
STARLINK-1243 4.5 16:59:46 10° WNW 17:02:46 36° SW 17:03:29 31° S
Cosmos 2285 Rocket 3.9 16:57:26 10° N 17:03:52 75° ENE 17:10:22 10° SSE
Okean 2 Rocket 3.8 17:01:36 10° S 17:05:16 40° SE 17:05:16 40° SE
Cosmos 1975 3.0 17:03:35 10° S 17:07:14 64° SSE 17:07:14 64° SSE
Cosmos 2322 Rocket 2.3 17:03:25 10° SSW 17:09:02 57° ESE 17:09:44 53° E
GP-B 4.2 17:05:03 10° SSW 17:09:21 44° W 17:12:21 18° NNW
Resurs 01 Rocket 2.9 17:07:48 10° SSE 17:10:14 28° SE 17:10:14 28° SE
SL-08 RB Rocket 3.8 17:07:49 10° S 17:12:34 80° WSW 17:13:50 48° NNW
Meteor 2-9 Rocket 4.1 17:11:18 10° S 17:17:11 78° E 17:18:00 65° NE
Cosmos 1184 Rocket 4.3 17:14:36 10° SSW 17:17:04 38° SW 17:17:04 38° SW
CZ-2C R/B 3.7 17:12:51 10° S 17:18:12 60° WSW 17:23:46 10° NNW
Cosmos 2219 Rocket 4.3 17:15:48 10° SSE 17:18:30 13° SE 17:18:42 13° SE
Cosmos 2221 Rocket 3.8 17:22:20 67° S 17:22:20 67° S 17:26:16 10° S
USA 215 4.1 17:21:34 31° ESE 17:23:46 40° SSE 17:29:50 10° SW
Cosmos 1461 4.2 17:25:38 10° SW 17:29:02 33° WNW 17:29:02 33° WNW
Sich 1 Rocket 4.1 17:26:58 10° SSW 17:31:20 55° W 17:31:20 55° W
SPOT 3 Rocket 3.8 17:27:16 10° S 17:32:26 65° WSW 17:34:00 43° NW
Cosmos 2360 Rocket 2.7 17:29:15 10° SSW 17:34:19 46° SE 17:34:19 46° SE
Delta 2 Rocket 4.4 17:29:32 10° WNW 17:34:12 53° NW 17:34:12 53° NW
Mayak 0.1 17:37:43 36° S 17:37:43 36° S 17:40:17 10° S
Cosmos 1092 Rocket 4.1 17:37:04 47° NNW 17:38:59 76° W 17:45:18 10° S
Cosmos 1428 Rocket 4.4 17:40:50 71° ESE 17:40:50 71° ESE 17:46:55 10° S
Cosmos 1607 4.3 17:38:53 10° NW 17:45:15 64° SW 17:51:38 10° SSE
ATLAS CENTAUR R/B 4.0 17:48:57 10° S 17:50:38 15° SSE 17:50:38 15° SSE
Thor Agena Rocket 4.0 17:54:02 57° WSW 17:54:02 57° WSW 17:58:32 10° SSW
COSMOS 2428 4.3 17:56:04 10° S 17:59:39 25° SE 17:59:39 25° SE
SL-16 R/B 3.4 18:06:57 10° SW 18:11:54 34° W 18:11:54 34° W
CZ-4C R/B 3.4 18:23:31 10° SW 18:26:43 35° SW 18:26:43 35° SW
Cosmos 1553 Rocket 4.5 18:23:56 10° S 18:29:10 60° SSW 18:29:10 60° SSW
SJ 16-02 3.9 18:35:18 18° S 18:35:18 18° S 18:36:36 10° S
Cosmos 2333 Rocket 3.6 18:40:55 10° SSW 18:44:16 35° S 18:44:16 35° S
Resurs 01 Rocket 4.3 18:45:25 10° SSW 18:47:48 16° WSW 18:47:48 16° WSW
Cosmos 2322 Rocket 4.4 18:48:47 10° WSW 18:51:33 17° W 18:51:33 17° W
Cosmos 2237 Rocket 4.1 18:57:18 10° S 18:59:56 23° SSE 18:59:56 23° SSE
Cosmos 2219 Rocket 3.8 18:57:35 10° SSW 19:00:24 31° SSW 19:00:24 31° SSW
USA 215 4.2 19:08:54 41° WSW 19:08:54 41° WSW 19:13:06 10° SW
Cosmos 2360 Rocket 4.4 19:14:04 10° SW 19:16:04 18° WSW 19:16:04 18° WSW
SL-16 R/B 4.4 19:44:14 10° S 19:46:26 20° SSE 19:46:26 20° SSE
Resurs 1-4 Rocket 4.5 20:28:58 19° S 20:28:58 19° S 20:30:31 10° S
CENTAUR R/B 3.9 21:17:20 40° ESE 21:17:20 40° ESE 21:21:51 10° SE
ATLAS 3B R/B 4.0 21:25:50 34° ESE 21:25:50 34° ESE 21:30:33 10° SE
ADEOS II 4.1 21:44:28 23° S 21:44:28 23° S 21:46:25 10° S
SL-16 R/B 3.6 22:05:30 10° SSE 22:10:51 36° E 22:10:51 36° E
Cosmos 1844 Rocket 4.1 22:19:09 32° E 22:19:09 32° E 22:23:14 10° SE
Cosmos 2263 Rocket 3.6 22:21:39 32° SSW 22:21:39 32° SSW 22:25:01 10° S
FALCON 9 R/B 3.5 22:48:22 51° NNE 22:49:02 52° NNE 23:08:00 10° E
Cosmos 1420 Rocket 4.5 22:52:03 58° SE 22:52:03 58° SE 22:56:21 10° SSE
Cosmos 1844 4.2 22:52:02 54° ENE 22:52:02 54° ENE 22:57:40 10° SSE
H-2A R/B 4.4 22:49:30 10° SE 22:52:25 18° E 22:53:09 17° ENE
Cosmos 1452 Rocket 4.0 22:53:55 55° E 22:53:55 55° E 22:58:42 10° SSE
Lacrosse 5 rocket 3.3 22:56:27 26° SE 22:56:27 26° SE 22:58:16 10° SE
Meteor 1-11 4.4 22:54:44 73° E 22:54:44 73° E 23:00:25 10° SSE
Cosmos 2221 4.2 22:54:38 10° SSE 22:58:27 29° ESE 22:59:07 28° E
USA 234 3.2 22:58:52 10° SE 23:05:29 76° SW 23:06:20 66° W
CENTAUR R/B 3.8 23:04:31 34° WSW 23:05:42 35° SW 23:12:03 10° SSE
Cosmos 1867 3.6 23:12:49 67° NE 23:12:55 67° ENE 23:18:18 10° SE
Cosmos 676 Rocket 4.4 23:07:43 10° SSW 23:11:50 55° SSW 23:11:50 55° SSW
Cosmos 2278 Rocket 4.3 23:09:59 13° NE 23:13:27 21° E 23:17:39 10° SE
ATLAS 3B R/B 3.4 23:13:05 41° WSW 23:14:21 44° SW 23:21:29 10° SSE
IDEFIX/ARIANE 42P 3.4 23:17:39 38° SW 23:17:39 38° SW 23:21:03 10° SSW
Cosmos 1818 3.6 23:12:33 10° SSW 23:18:00 78° ESE 23:23:24 10° NE
Cosmos 2366 rocket 3.8 23:22:38 65° NW 23:23:31 77° W 23:29:45 10° S
MSX 3.7 23:27:01 65° WNW 23:27:16 66° WNW 23:33:05 10° SSW
ERS-2 3.6 23:24:17 10° S 23:26:26 32° S 23:26:26 32° S
CZ-2C R/B 2.4 23:29:11 42° NNE 23:30:42 72° ESE 23:35:23 10° S
Cosmos 2218 Rocket 4.0 23:35:08 53° WNW 23:36:00 57° W 23:42:11 10° S
Cosmos 371 Rocket 3.3 23:36:24 63° N 23:37:09 79° ENE 23:42:05 10° SSE
Exosat Rocket 3.3 23:32:17 10° SSW 23:37:33 72° WNW 23:38:27 57° NNW
SL-8 Rocket 4.3 23:38:14 44° W 23:38:47 45° WSW 23:44:54 10° S
ADEOS 3.6 23:46:46 51° WNW 23:47:03 52° W 23:52:13 10° SSW
Meteor 2-2 Rocket 4.3 23:42:24 10° S 23:48:21 86° E 23:54:19 10° N
Cosmos 332 Rocket 3.8 23:47:36 45° N 23:49:08 80° ENE 23:54:08 10° SSE
STARLINK-75 4.1 23:55:20 37° NE 23:55:28 37° NE 23:58:39 10° ESE
